DELTA 1 DEB, 10872

Orbit data source: Space-Track

DELTA 1 DEB, 10872 is space debris in SSO originally from a launch on Thu, 29 Jul 1976 UTC launched from the Air Force Western Test Range (AFWTR). Debris objects in space refer to the collection of defunct objects orbiting the Earth. Examples of debris include non-operational satellites, rocket bodies, and fragments generated from explosions, collisions, or faulty payload assembly.

Loading next visibility...
Identifier
10872, 1976-077DA
Orbit
SSO
Country
Flag of USUS
Related business
Manufacturer
Unknown
Mission
Spacecraft
Bus & Motor
Unknown
Mass
Unknown
Launch date (UTC)
1976-07-29 (50 years ago)
Launch vehicle
Unknown
Launch site
Air Force Western Test Range (AFWTR)
Object type
Payload
Rocket body
Debris
Shape & HBR
Unknown shape, 0.1 m
Radar Cross Section
Medium (>0.1 m² and <1 m²)

Expand to show TLE details & history
Last TLE update: 2 days ago

TLE from 2 days ago
0 DELTA 1 DEB
1 10872U 76077DA  26263.94059812  .00000057  00000-0  84004-3 0  9993
2 10872 101.4785 262.3334 0098325 194.7048 194.3812 12.27182729243625
Epoch: 2026-09-20T22:34Z
TLE epoch observation values (Epoch: 2026-09-20T22:34:27.677Z)
Latitude
28.22185°
Longitude
-82.33585°
Altitude
1,640.258 km
Speed
7.021 km/s
True Right ascension
17h 04m 25s
True Declination
28° 05' 40"
Sunlit
Object was in daylight at epoch
Visualization orbit readout
Latitude
Unknown
Longitude
Unknown
Altitude
Unknown
Speed
Unknown
Apparent Right ascension
Unknown
Apparent Declination
Unknown
Sunlit
N/A
Visualization observer readout
Local Sidereal Time
17:49:19
Azimuth
Unknown
Elevation
Unknown
Doppler factor
Unknown
Orbital elements
Apogee altitude
1,637.012 km
Perigee altitude
1,480.929 km
Semi-major axis
7,937.107 km
Eccentricity
0.00983
Inclination
101.4785°
RAAN
262.3334°
Arg. of periapsis
194.7048°
True anomaly
194.10465°
Mean anomaly
194.3812°
Eccentric anomaly
194.2426°
Mean motion
3.06937 °/min
Orbital period
117.29 mins
BSTAR
0.00084004
Loading maneuver chart data...
Computing Atmospheric mass density...
Loading historical data...
Loading historical data...
Loading historical data...
Loading historical data...
Loading historical data...
Loading historical data...
Loading historical data...

Documentation

Showing up to 5 results
|